Regional Weather Roundup
Issued by NWS

Home | Current Version | Previous Version | Graphics & Text | Print | Product List | Glossary On
Versions: 1 2 3 4 5 6 7 8 9 10 11 12 13 14 15 16 17 18 19 20 21 22 23 24 25 26 27 28 29 30 31 32 33 34 35 36 37 38 39 40 41 42 43 44 45 46 47 48 49 50
640
ASUS43 KOAX 301610
RWRNE

WEATHER ROUNDUP FOR NEBRASKA
NATIONAL WEATHER SERVICE OMAHA NE
1100 AM CDT SUN APR 30 2017

NOTES: SATELLITE DATA IS BEING USED TO AUGMENT CLOUD COVER ABOVE
       12000 FEET.
       "FAIR" INDICATES FEW OR NO CLOUDS BELOW 12,000 FEET WITH NO
       SIGNIFICANT WEATHER AND/OR OBSTRUCTIONS TO VISIBILITY.

  * THESE STATIONS DO NOT REPORT WEATHER SUCH AS RAIN...SNOW OR FOG.

NEZ001>004-019>022-054>056-301700-
NEBRASKA PANHANDLE

CITY           SKY/WX    TMP DP  RH WIND       PRES   REMARKS
SCOTTSBLUFF    CLOUDY    47  24  40 N18       30.00S
ALLIANCE       CLOUDY    43  24  47 N17       29.96S
CHADRON        MOSUNNY   48  25  40 N9        30.02S
KIMBALL        CLOUDY    42  24  50 N24G33    29.97F
SIDNEY         CLOUDY    40  22  48 N29G41    29.93F WCI  29
$$

NEZ057>060-069>072-079>082-301700-
SOUTHWEST NEBRASKA

CITY           SKY/WX    TMP DP  RH WIND       PRES   REMARKS
NORTH PLATTE   CLOUDY    43  22  43 N26G44    29.77F
IMPERIAL       CLOUDY    42  24  49 N30G45    29.82R
LEXINGTON      LGT RAIN  36  32  83 N24       29.77R WCI  25
MCCOOK         LGT SNOW  35  30  82 N31G37    29.76F WCI  22
OGALLALA       CLOUDY    45  23  43 N31       29.86R
$$

NEZ005>010-023>029-035>040-094-301700-
NORTH CENTRAL NEBRASKA

CITY           SKY/WX    TMP DP  RH WIND       PRES   REMARKS
VALENTINE      PTSUNNY   46  16  30 N22G30    29.94S
AINSWORTH      PTSUNNY   41  24  50 N20G25    29.89F
BROKEN BOW     LGT RAIN  40  28  62 N31G46    29.70F WCI  28
O`NEILL        LGT RAIN  39  31  71 N24       29.86F WCI  28
ORD            LGT SNOW  34  31  88 N23G31    29.75F FOG     WCI  22
THEDFORD       CLOUDY    42  25  50 N18G36    29.85F
$$

NEZ041-046>049-061>064-073>077-083>087-301700-
SOUTH CENTRAL NEBRASKA

CITY           SKY/WX    TMP DP  RH WIND       PRES   REMARKS
GRAND ISLAND   TSTM      35  35 100 N32G40    29.64F FOG     WCI  21
AURORA         TSTM      37  37 100 NE33G43   29.60F WCI  24
HASTINGS       HVY RAIN  37  35  92 NE28G33   29.65R FOG     WCI  25
HEBRON         DRIZZLE   38  37  98 NE14      29.62R WCI  30
HOLDREGE       LGT SNOW  33  32  96 N24G31    29.68F VSB 1   WCI  20
KEARNEY *      CLOUDY    34  30  86 N25G35    29.67F WCI  21
YORK           MIX PCPN  37  37 100 NE38G48   29.58F VSB 1/2 WCI  24
$$

NEZ011>018-030>034-042>045-301700-
NORTHEAST NEBRASKA

CITY           SKY/WX    TMP DP  RH WIND       PRES   REMARKS
NORFOLK        RAIN      37  35  92 NE25G38   29.74F FOG     WCI  25
ALBION         CLOUDY    37  34  89 N24G35    29.74F WCI  25
BLAIR          RAIN      39  38  94 NE29      29.65F WCI  28
FREMONT        MIX PCPN  38  38  99 NE17G33   29.69F WCI  29
TEKAMAH        LGT RAIN  40  37  89 NE25G31   29.75F FOG     WCI  29
WAYNE          LGT RAIN  39  39  98 NE21G35   29.79F WCI  29
$$

NEZ050>053-065>068-078-088>093-301700-
SOUTHEAST NEBRASKA

CITY           SKY/WX    TMP DP  RH WIND       PRES   REMARKS
LINCOLN        RAIN      40  38  93 NE24G41   29.59R VSB 1   WCI  29
OMAHA EPPLEY   CLOUDY    41  36  82 NE22G36   29.68F
BEATRICE       CLOUDY    40  39  97 NE10G16   29.55R WCI  34
FALLS CITY     LGT RAIN  44  43  96 E22G31    29.50F FOG
NEBRASKA CITY  CLOUDY    41  41 100 NE25G37   29.54F
PLATTSMOUTH    CLOUDY    41  38  87 NE22G35   29.60F
$$

NEZ044-045-051>053-067-301700-
OMAHA AREA

CITY           SKY/WX    TMP DP  RH WIND       PRES   REMARKS
OMAHA EPPLEY   CLOUDY    41  36  82 NE22G36   29.68F
BLAIR          RAIN      39  38  94 NE29      29.65F WCI  28
FREMONT        MIX PCPN  38  38  99 NE17G33   29.69F WCI  29
MILLARD        CLOUDY    42  39  89 NE12G26   29.65F
OFFUTT AFB     CLOUDY    41  38  87 NE15G33   29.64F
PLATTSMOUTH    CLOUDY    41  38  87 NE22G35   29.60F
WAHOO          LGT RAIN  39  37  93 NE26G37   29.64F WCI  28
$$




USA.gov is the U.S. government's official web portal to all federal, state and local government web resources and services.